TimeMST,TemperatureF,Dew PointF,Humidity,Sea Level PressureIn,VisibilityMPH,Wind Direction,Wind SpeedMPH,Gust SpeedMPH,PrecipitationIn,Events,Conditions,WindDirDegrees,DateUTC
12:53 AM,33.1,28.0,82,30.04,10.0,SW,4.6,-,N/A,,Clear,220,2012-11-19 07:53:00
1:53 AM,33.1,27.0,78,30.06,10.0,Calm,Calm,-,N/A,,Clear,0,2012-11-19 08:53:00
2:53 AM,28.9,25.0,85,30.10,10.0,Calm,Calm,-,N/A,,Clear,0,2012-11-19 09:53:00
3:53 AM,26.1,24.1,92,30.12,10.0,SW,4.6,-,N/A,,Clear,230,2012-11-19 10:53:00
5:53 AM,28.9,26.1,89,30.19,10.0,SW,3.5,-,N/A,,Clear,230,2012-11-19 12:53:00
6:53 AM,26.1,23.0,88,30.23,10.0,SW,6.9,-,N/A,,Clear,230,2012-11-19 13:53:00
7:53 AM,28.9,26.1,89,30.25,10.0,WSW,3.5,-,N/A,,Clear,240,2012-11-19 14:53:00
8:53 AM,37.0,30.9,79,30.24,10.0,Calm,Calm,-,N/A,,Clear,0,2012-11-19 15:53:00
9:53 AM,48.0,30.9,52,30.22,10.0,Variable,3.5,-,N/A,,Clear,0,2012-11-19 16:53:00
10:53 AM,51.1,21.9,32,30.21,10.0,SE,3.5,-,N/A,,Clear,130,2012-11-19 17:53:00
11:53 AM,55.0,25.0,31,30.17,10.0,Calm,Calm,-,N/A,,Clear,0,2012-11-19 18:53:00
12:53 PM,57.9,28.9,33,30.15,10.0,Calm,Calm,-,N/A,,Clear,0,2012-11-19 19:53:00
1:53 PM,59.0,30.0,33,30.14,10.0,Calm,Calm,-,N/A,,Clear,0,2012-11-19 20:53:00
2:53 PM,59.0,32.0,36,30.14,10.0,NE,3.5,-,N/A,,Clear,50,2012-11-19 21:53:00
3:53 PM,54.0,32.0,43,30.17,10.0,Calm,Calm,-,N/A,,Clear,0,2012-11-19 22:53:00
4:28 PM,48.2,32.0,54,30.10,2.0,Calm,Calm,-,N/A,,Haze,0,2012-11-19 23:28:00
4:39 PM,44.6,30.2,57,30.10,5.0,Calm,Calm,-,N/A,,Haze,0,2012-11-19 23:39:00
4:53 PM,44.1,30.9,60,30.19,9.0,SSE,3.5,-,N/A,,Clear,150,2012-11-19 23:53:00
5:53 PM,37.9,30.0,73,30.22,10.0,SW,5.8,-,N/A,,Clear,220,2012-11-20 00:53:00
6:53 PM,35.1,28.9,78,30.25,10.0,WSW,8.1,-,N/A,,Clear,240,2012-11-20 01:53:00
7:53 PM,36.0,28.9,76,30.24,10.0,SW,6.9,-,N/A,,Clear,220,2012-11-20 02:53:00
8:53 PM,34.0,28.9,82,30.22,10.0,WSW,8.1,-,N/A,,Clear,240,2012-11-20 03:53:00
9:53 PM,30.9,27.0,85,30.20,10.0,SW,4.6,-,N/A,,Clear,230,2012-11-20 04:53:00
10:53 PM,32.0,28.0,85,30.18,10.0,WSW,8.1,-,N/A,,Clear,250,2012-11-20 05:53:00
11:53 PM,32.0,28.0,85,30.17,10.0,SW,6.9,-,N/A,,Clear,230,2012-11-20 06:53:00